| time (UTC) | temp F | wind direction | speed MPH | gust MPH | rain 1hr in | rain 24hr in | rain mn in | humidity % | barometer mb |
| 20260509173339 | 42 | 176 | 0.0 | 3.0 | 0.00 | 0.00 | 0.00 | 75 | 1019.8 |
| 20260509172328 | 42 | 176 | 1.0 | 3.0 | 0.00 | 0.00 | 0.00 | 75 | 1019.7 |
| 20260509171337 | 42 | 176 | 2.0 | 3.0 | 0.00 | 0.00 | 0.00 | 75 | 1019.6 |
| 20260509170327 | 43 | 177 | 1.0 | 3.0 | 0.00 | 0.00 | 0.00 | 74 | 1020.5 |
| 20260509165339 | 43 | 176 | 1.0 | 3.0 | 0.00 | 0.00 | 0.00 | 73 | 1020.3 |
| 20260509164330 | 43 | 176 | 0.0 | 1.0 | 0.00 | 0.00 | 0.00 | 73 | 1020.2 |
| 20260509163339 | 43 | 176 | 0.0 | 2.0 | 0.00 | 0.00 | 0.00 | 72 | 1020.1 |
| 20260509162333 | 44 | 178 | 1.0 | 2.0 | 0.00 | 0.00 | 0.00 | 72 | 1020.0 |
| 20260509161341 | 44 | 176 | 1.0 | 2.0 | 0.00 | 0.00 | 0.00 | 71 | 1020.0 |
| 20260509160329 | 44 | 177 | 1.0 | 3.0 | 0.00 | 0.00 | 0.00 | 71 | 1020.0 |
| 20260509155338 | 44 | 177 | 1.0 | 3.0 | 0.00 | 0.00 | 0.00 | 71 | 1020.1 |
| 20260509154332 | 45 | 177 | 0.0 | 3.0 | 0.00 | 0.00 | 0.00 | 70 | 1019.9 |
| 20260509153341 | 45 | 159 | 2.0 | 4.0 | 0.00 | 0.00 | 0.00 | 69 | 1020.0 |
| 20260509152331 | 45 | 198 | 2.0 | 3.0 | 0.00 | 0.00 | 0.00 | 69 | 1020.0 |
| 20260509151341 | 46 | 198 | 2.0 | 2.0 | 0.00 | 0.00 | 0.00 | 69 | 1020.0 |
| 20260509150335 | 46 | 198 | 0.0 | 3.0 | 0.00 | 0.00 | 0.00 | 68 | 1020.0 |
| 20260509145342 | 46 | 198 | 1.0 | 3.0 | 0.00 | 0.00 | 0.00 | 67 | 1020.0 |
| 20260509144330 | 46 | 198 | 1.0 | 3.0 | 0.00 | 0.00 | 0.00 | 67 | 1020.0 |
| 20260509143339 | 46 | 198 | 1.0 | 3.0 | 0.00 | 0.00 | 0.00 | 67 | 1019.9 |
| 20260509142333 | 46 | 187 | 1.0 | 3.0 | 0.00 | 0.00 | 0.00 | 67 | 1019.7 |
| 20260509141342 | 47 | 188 | 1.0 | 4.0 | 0.00 | 0.00 | 0.00 | 66 | 1019.6 |
| 20260509140333 | 47 | 142 | 2.0 | 3.0 | 0.00 | 0.00 | 0.00 | 65 | 1019.6 |
| 20260509135324 | 48 | 141 | 0.0 | 1.0 | 0.00 | 0.00 | 0.00 | 64 | 1019.6 |
| 20260509134333 | 48 | 142 | 3.0 | 4.0 | 0.00 | 0.00 | 0.00 | 64 | 1019.4 |
| 20260509133342 | 48 | 192 | 0.0 | 3.0 | 0.00 | 0.00 | 0.00 | 64 | 1019.4 |
| 20260509132331 | 49 | 192 | 2.0 | 2.0 | 0.00 | 0.00 | 0.00 | 62 | 1019.3 |
| 20260509131324 | 49 | 192 | 0.0 | 1.0 | 0.00 | 0.00 | 0.00 | 61 | 1019.1 |
| 20260509130333 | 49 | 192 | 0.0 | 3.0 | 0.00 | 0.00 | 0.00 | 60 | 1019.0 |
| 20260509125342 | 50 | 192 | 2.0 | 3.0 | 0.00 | 0.00 | 0.00 | 59 | 1019.0 |
| 20260509124330 | 50 | 191 | 0.0 | 4.0 | 0.00 | 0.00 | 0.00 | 58 | 1018.9 |
| 20260509123342 | 50 | 175 | 0.0 | 3.0 | 0.00 | 0.00 | 0.00 | 57 | 1018.8 |
| 20260509122332 | 50 | 132 | 1.0 | 4.0 | 0.00 | 0.00 | 0.00 | 57 | 1018.7 |
| 20260509121341 | 51 | 123 | 2.0 | 4.0 | 0.00 | 0.00 | 0.00 | 56 | 1018.5 |
| 20260509120334 | 51 | 132 | 1.0 | 5.0 | 0.00 | 0.00 | 0.00 | 56 | 1018.5 |
| 20260509115343 | 52 | 134 | 3.0 | 4.0 | 0.00 | 0.00 | 0.00 | 55 | 1018.3 |
| 20260509114332 | 52 | 135 | 1.0 | 4.0 | 0.00 | 0.00 | 0.00 | 53 | 1018.3 |
| 20260509113341 | 53 | 125 | 1.0 | 3.0 | 0.00 | 0.00 | 0.00 | 51 | 1018.3 |
| 20260509112335 | 53 | 132 | 3.0 | 9.0 | 0.00 | 0.00 | 0.00 | 51 | 1017.9 |
| 20260509111325 | 53 | 127 | 4.0 | 7.0 | 0.00 | 0.00 | 0.00 | 52 | 1017.9 |
| 20260509110333 | 53 | 133 | 4.0 | 7.0 | 0.00 | 0.00 | 0.00 | 51 | 1017.6 |
| 20260509105342 | 54 | 128 | 4.0 | 6.0 | 0.00 | 0.00 | 0.00 | 51 | 1017.4 |
| 20260509104335 | 56 | 132 | 3.0 | 5.0 | 0.00 | 0.00 | 0.00 | 48 | 1017.2 |
| 20260509103343 | 57 | 292 | 2.0 | 6.0 | 0.00 | 0.00 | 0.00 | 45 | 1017.0 |
| 20260509102330 | 57 | 257 | 2.0 | 6.0 | 0.00 | 0.00 | 0.00 | 45 | 1016.9 |
| 20260509101323 | 57 | 290 | 4.0 | 9.0 | 0.00 | 0.00 | 0.00 | 43 | 1016.8 |
| 20260509100331 | 58 | 288 | 3.0 | 11.0 | 0.00 | 0.00 | 0.00 | 43 | 1016.5 |
| 20260509095341 | 58 | 296 | 5.0 | 7.0 | 0.00 | 0.00 | 0.00 | 42 | 1016.4 |
| 20260509094329 | 59 | 287 | 4.0 | 10.0 | 0.00 | 0.00 | 0.00 | 41 | 1016.3 |
| 20260509093343 | 59 | 277 | 5.0 | 12.0 | 0.00 | 0.00 | 0.00 | 39 | 1016.1 |
| 20260509092332 | 60 | 306 | 6.0 | 8.0 | 0.00 | 0.00 | 0.00 | 37 | 1015.9 |
| 20260509091341 | 61 | 267 | 5.0 | 11.0 | 0.00 | 0.01 | 0.00 | 38 | 1015.7 |
| 20260509090331 | 62 | 317 | 8.0 | 10.0 | 0.00 | 0.01 | 0.00 | 34 | 1015.5 |
| 20260509085342 | 62 | 281 | 5.0 | 14.0 | 0.00 | 0.01 | 0.00 | 37 | 1015.3 |
| 20260509084332 | 63 | 299 | 7.0 | 12.0 | 0.00 | 0.01 | 0.00 | 33 | 1015.1 |
| 20260509083341 | 63 | 346 | 5.0 | 13.0 | 0.00 | 0.01 | 0.00 | 32 | 1015.1 |
| 20260509082329 | 63 | 321 | 7.0 | 11.0 | 0.00 | 0.01 | 0.00 | 32 | 1015.0 |
| 20260509081342 | 63 | 31 | 4.0 | 14.0 | 0.00 | 0.01 | 0.00 | 33 | 1014.7 |
| 20260509080332 | 62 | 360 | 7.0 | 13.0 | 0.00 | 0.01 | 0.00 | 33 | 1014.7 |
| 20260509075340 | 62 | 42 | 6.0 | 16.0 | 0.00 | 0.01 | 0.00 | 34 | 1014.4 |
| 20260509074332 | 63 | 360 | 5.0 | 11.0 | 0.00 | 0.01 | 0.00 | 33 | 1014.4 |
| 20260509073341 | 63 | 360 | 5.0 | 13.0 | 0.00 | 0.01 | 0.00 | 33 | 1014.1 |
| 20260509072331 | 62 | 355 | 4.0 | 16.0 | 0.00 | 0.01 | 0.00 | 33 | 1014.1 |
| 20260509071338 | 63 | 69 | 9.0 | 17.0 | 0.00 | 0.02 | 0.00 | 33 | 1013.9 |
| 20260509070332 | 64 | 17 | 4.0 | 15.0 | 0.00 | 0.02 | 0.00 | 32 | 1013.5 |
| 20260509065341 | 64 | 18 | 9.0 | 17.0 | 0.00 | 0.02 | 0.00 | 32 | 1013.5 |
| 20260509064330 | 63 | 24 | 9.0 | 16.0 | 0.00 | 0.02 | 0.00 | 32 | 1013.2 |
| 20260509063339 | 64 | 61 | 8.0 | 14.0 | 0.00 | 0.02 | 0.00 | 33 | 1013.2 |
| 20260509062331 | 64 | 5 | 7.0 | 16.0 | 0.00 | 0.02 | 0.00 | 31 | 1013.4 |
| 20260509061341 | 65 | 15 | 7.0 | 14.0 | 0.00 | 0.02 | 0.00 | 31 | 1013.3 |
| 20260509060329 | 64 | 340 | 8.0 | 19.0 | 0.00 | 0.02 | 0.00 | 31 | 1013.3 |
| 20260509055338 | 65 | 64 | 9.0 | 17.0 | 0.00 | 0.02 | 0.00 | 31 | 1013.2 |
| 20260509054331 | 65 | 26 | 10.0 | 17.0 | 0.00 | 0.02 | 0.00 | 31 | 1013.2 |
| 20260509053340 | 66 | 34 | 6.0 | 17.0 | 0.00 | 0.02 | 0.00 | 31 | 1013.2 |
| 20260509052330 | 66 | 30 | 7.0 | 17.0 | 0.00 | 0.02 | 0.00 | 31 | 1013.3 |
| 20260509051343 | 65 | 53 | 6.0 | 18.0 | 0.00 | 0.02 | 0.00 | 30 | 1013.3 |
| 20260509050333 | 65 | 319 | 12.0 | 19.0 | 0.00 | 0.02 | 0.00 | 31 | 1013.4 |
| 20260509045342 | 65 | 318 | 6.0 | 15.0 | 0.00 | 0.02 | 0.00 | 30 | 1013.3 |
| 20260509044332 | 65 | 42 | 6.0 | 13.0 | 0.00 | 0.02 | 0.00 | 30 | 1013.2 |
| 20260509043326 | 65 | 49 | 7.0 | 21.0 | 0.00 | 0.02 | 0.00 | 31 | 1013.4 |
| 20260509042335 | 65 | 74 | 5.0 | 15.0 | 0.00 | 0.02 | 0.00 | 33 | 1013.4 |
| 20260509041344 | 65 | 355 | 6.0 | 16.0 | 0.00 | 0.02 | 0.00 | 33 | 1013.5 |
| 20260509040332 | 65 | 302 | 9.0 | 17.0 | 0.00 | 0.02 | 0.00 | 32 | 1013.4 |
| 20260509035325 | 64 | 17 | 6.0 | 17.0 | 0.00 | 0.02 | 0.00 | 33 | 1013.5 |
| 20260509034335 | 64 | 327 | 9.0 | 15.0 | 0.00 | 0.02 | 0.00 | 33 | 1013.4 |
| 20260509033326 | 64 | 350 | 6.0 | 17.0 | 0.00 | 0.02 | 0.00 | 34 | 1013.5 |
| 20260509032339 | 63 | 300 | 4.0 | 11.0 | 0.00 | 0.02 | 0.00 | 39 | 1013.3 |
| 20260509031330 | 63 | 341 | 6.0 | 12.0 | 0.00 | 0.02 | 0.00 | 40 | 1013.3 |
| 20260509030339 | 63 | 273 | 7.0 | 13.0 | 0.00 | 0.02 | 0.00 | 40 | 1013.6 |
| 20260509025328 | 61 | 214 | 4.0 | 11.0 | 0.00 | 0.02 | 0.00 | 44 | 1013.7 |
| 20260509024341 | 61 | 309 | 4.0 | 14.0 | 0.00 | 0.02 | 0.00 | 42 | 1013.7 |
| 20260509023329 | 62 | 344 | 10.0 | 14.0 | 0.00 | 0.02 | 0.00 | 42 | 1013.8 |
| 20260509022338 | 61 | 328 | 5.0 | 13.0 | 0.00 | 0.02 | 0.00 | 43 | 1013.7 |
| 20260509021328 | 61 | 333 | 11.0 | 17.0 | 0.00 | 0.02 | 0.00 | 43 | 1013.8 |
| 20260509020341 | 61 | 275 | 5.0 | 14.0 | 0.00 | 0.02 | 0.00 | 45 | 1013.9 |
| 20260509015329 | 60 | 342 | 6.0 | 12.0 | 0.00 | 0.02 | 0.00 | 46 | 1014.0 |
| 20260509014337 | 59 | 233 | 6.0 | 14.0 | 0.00 | 0.02 | 0.00 | 49 | 1014.1 |
| 20260509013330 | 60 | 325 | 5.0 | 12.0 | 0.00 | 0.02 | 0.00 | 48 | 1013.9 |
| 20260509012338 | 60 | 315 | 5.0 | 11.0 | 0.00 | 0.02 | 0.00 | 49 | 1013.8 |
| 20260509011326 | 59 | 355 | 6.0 | 11.0 | 0.00 | 0.02 | 0.00 | 49 | 1013.8 |
| 20260509010335 | 58 | 32 | 6.0 | 12.0 | 0.00 | 0.02 | 0.00 | 52 | 1013.8 |
| 20260509005328 | 58 | 261 | 4.0 | 15.0 | 0.00 | 0.02 | 0.00 | 51 | 1013.8 |
| 20260509004337 | 58 | 307 | 5.0 | 15.0 | 0.00 | 0.02 | 0.00 | 51 | 1013.8 |
| 20260509003325 | 58 | 344 | 6.0 | 14.0 | 0.00 | 0.02 | 0.00 | 51 | 1013.7 |
| 20260509002334 | 57 | 31 | 6.0 | 16.0 | 0.00 | 0.02 | 0.00 | 51 | 1013.4 |
| 20260509001328 | 56 | 355 | 8.0 | 18.0 | 0.00 | 0.02 | 0.00 | 52 | 1013.4 |
| 20260509000337 | 56 | 5 | 9.0 | 17.0 | 0.00 | 0.02 | 0.00 | 53 | 1013.4 |
| 20260508235327 | 56 | 19 | 7.0 | 20.0 | 0.00 | 0.02 | 0.00 | 53 | 1013.2 |
| 20260508234337 | 56 | 44 | 10.0 | 18.0 | 0.00 | 0.02 | 0.00 | 54 | 1013.1 |
| 20260508233330 | 56 | 5 | 6.0 | 15.0 | 0.00 | 0.02 | 0.00 | 56 | 1012.9 |
| 20260508232341 | 57 | 20 | 9.0 | 17.0 | 0.00 | 0.02 | 0.00 | 55 | 1012.7 |
| 20260508231330 | 57 | 71 | 7.0 | 18.0 | 0.00 | 0.02 | 0.00 | 53 | 1012.5 |
| 20260508230341 | 57 | 32 | 11.0 | 19.0 | 0.00 | 0.02 | 0.00 | 51 | 1012.3 |
| 20260508225329 | 57 | 360 | 5.0 | 14.0 | 0.00 | 0.02 | 0.00 | 52 | 1012.0 |
| 20260508224338 | 56 | 319 | 2.0 | 12.0 | 0.00 | 0.02 | 0.00 | 53 | 1011.9 |
| 20260508223328 | 56 | 346 | 5.0 | 15.0 | 0.00 | 0.02 | 0.00 | 54 | 1011.8 |
| 20260508222340 | 55 | 330 | 5.0 | 14.0 | 0.00 | 0.02 | 0.00 | 55 | 1012.7 |
| 20260508221328 | 55 | 324 | 5.0 | 12.0 | 0.00 | 0.02 | 0.00 | 56 | 1012.4 |
| 20260508220338 | 55 | 288 | 5.0 | 13.0 | 0.00 | 0.02 | 0.00 | 55 | 1012.0 |
| 20260508215325 | 56 | 338 | 3.0 | 6.0 | 0.00 | 0.02 | 0.00 | 53 | 1011.7 |
| 20260508214338 | 55 | 302 | 2.0 | 6.0 | 0.00 | 0.02 | 0.00 | 53 | 1011.3 |
| 20260508213325 | 55 | 232 | 5.0 | 9.0 | 0.00 | 0.02 | 0.00 | 54 | 1011.1 |
| 20260508212333 | 54 | 222 | 2.0 | 11.0 | 0.00 | 0.02 | 0.00 | 54 | 1010.7 |
| 20260508211326 | 54 | 186 | 4.0 | 14.0 | 0.00 | 0.02 | 0.00 | 54 | 1010.3 |
| 20260508210336 | 53 | 236 | 6.0 | 18.0 | 0.00 | 0.02 | 0.00 | 54 | 1010.0 |
| 20260508205325 | 52 | 211 | 9.0 | 18.0 | 0.00 | 0.02 | 0.00 | 56 | 1009.7 |
| 20260508204335 | 51 | 250 | 10.0 | 18.0 | 0.00 | 0.02 | 0.00 | 56 | 1009.8 |
| 20260508203327 | 51 | 215 | 8.0 | 15.0 | 0.00 | 0.02 | 0.00 | 56 | 1009.8 |
| 20260508202335 | 51 | 206 | 8.0 | 20.0 | 0.00 | 0.02 | 0.00 | 57 | 1009.6 |
| 20260508201342 | 51 | 198 | 8.0 | 25.0 | 0.00 | 0.02 | 0.00 | 57 | 1009.5 |
| 20260508200330 | 50 | 205 | 12.0 | 26.0 | 0.00 | 0.02 | 0.00 | 57 | 1009.7 |
| 20260508195343 | 50 | 207 | 11.0 | 17.0 | 0.00 | 0.02 | 0.00 | 56 | 1009.7 |
| 20260508194333 | 51 | 207 | 5.0 | 15.0 | 0.00 | 0.02 | 0.00 | 56 | 1009.7 |
| 20260508193343 | 51 | 192 | 9.0 | 18.0 | 0.00 | 0.02 | 0.00 | 54 | 1009.7 |
| 20260508192333 | 51 | 200 | 9.0 | 16.0 | 0.00 | 0.02 | 0.00 | 54 | 1009.7 |
| 20260508191324 | 51 | 167 | 7.0 | 16.0 | 0.00 | 0.02 | 0.00 | 54 | 1009.7 |
| 20260508190331 | 51 | 217 | 6.0 | 16.0 | 0.00 | 0.02 | 0.00 | 53 | 1009.6 |
| 20260508185341 | 51 | 120 | 7.0 | 16.0 | 0.00 | 0.02 | 0.00 | 51 | 1009.3 |
| 20260508184334 | 51 | 178 | 9.0 | 20.0 | 0.00 | 0.02 | 0.00 | 50 | 1009.2 |
| 20260508183343 | 51 | 149 | 12.0 | 20.0 | 0.00 | 0.02 | 0.00 | 50 | 1009.4 |
| 20260508182334 | 51 | 219 | 6.0 | 20.0 | 0.00 | 0.02 | 0.00 | 49 | 1009.3 |
| 20260508181343 | 51 | 173 | 9.0 | 18.0 | 0.00 | 0.02 | 0.00 | 49 | 1009.3 |
| 20260508180337 | 51 | 166 | 6.0 | 13.0 | 0.00 | 0.02 | 0.00 | 49 | 1009.1 |
| 20260508175324 | 51 | 218 | 11.0 | 18.0 | 0.00 | 0.02 | 0.00 | 48 | 1008.8 |
| 20260508174333 | 51 | 192 | 7.0 | 16.0 | 0.00 | 0.02 | 0.00 | 48 | 1009.1 |